Location: Владивосток
(43.1151°N, 131.8856°E)
Time: 02:36:16
(UTC+10:00)

COSMOS 1867 COOLANT - Visible Passes

Search period start: 19 January 2026 00:00
Search period end: 29 January 2026 00:00
Orbit: 766 x 787 km, 65.0° (Epoch: 14 January)

Date Brightness Start Highest point End Pass type
(mag) Time Alt. Az. Time Alt. Az. Time Alt. Az.
19 Jan ? 06:25:08 12° N 06:28:45 23° NE 06:32:59 10° E visible
19 Jan ? 08:07:14 10° NW 08:12:38 72° WSW 08:17:59 10° SSE visible
20 Jan ? 05:51:14 15° N 05:53:21 18° NE 05:56:59 10° ENE visible
20 Jan ? 07:32:06 10° NNW 07:37:33 81° NE 07:42:56 10° SE visible
21 Jan ? 05:17:23 14° NNE 05:17:53 14° NNE 05:20:44 10° ENE visible
21 Jan ? 06:57:49 14° NNW 07:02:24 58° NE 07:07:42 10° SE visible
22 Jan ? 04:43:35 11° NE 04:43:35 11° NE 04:44:06 10° NE visible
22 Jan ? 06:24:02 21° N 06:27:12 42° NE 06:32:17 10° ESE visible
22 Jan ? 08:05:39 10° NW 08:10:25 32° WSW 08:15:08 10° S visible
23 Jan ? 05:50:19 26° NNE 05:51:56 31° NE 05:56:41 10° ESE visible
23 Jan ? 07:30:46 13° NW 07:35:27 47° WSW 07:40:34 10° S visible
24 Jan ? 05:16:41 24° NE 05:16:41 24° NE 05:20:54 10° E visible
24 Jan ? 06:57:08 24° NW 07:00:26 68° WSW 07:05:45 10° SSE visible
25 Jan ? 04:43:09 16° ENE 04:43:09 16° ENE 04:44:55 10° E visible
25 Jan ? 06:23:37 45° NNW 06:25:21 85° ENE 06:30:44 10° SE visible
25 Jan ? 20:59:52 10° S 20:59:55 10° S 20:59:55 10° S visible
26 Jan ? 05:50:11 60° NE 05:50:12 60° NE 05:55:31 10° SE visible
26 Jan ? 07:30:40 16° WNW 07:33:05 21° WSW 07:37:02 10° SSW visible
26 Jan ? 20:25:22 10° S 20:26:58 18° SSE 20:26:58 18° SSE visible
27 Jan ? 05:16:51 32° E 05:16:51 32° E 05:20:07 10° ESE visible
27 Jan ? 06:57:20 29° W 06:58:10 31° WSW 07:02:49 10° S visible
27 Jan ? 19:51:11 10° SSE 19:54:00 19° SE 19:54:00 19° SE visible
27 Jan ? 21:32:36 10° SW 21:34:30 22° SW 21:34:30 22° SW visible
28 Jan ? 04:43:38 14° ESE 04:43:38 14° ESE 04:44:33 10° ESE visible
28 Jan ? 06:24:08 41° SW 06:24:08 41° SW 06:28:17 10° S visible
28 Jan ? 19:17:36 10° SE 19:20:12 14° ESE 19:20:59 13° E visible
28 Jan ? 20:57:24 10° SSW 21:01:29 54° SW 21:01:29 54° SW visible
